Weather in Samui

Thailand     9°30′16″N   99°59′38″E
temp.,
°C
wind,
m/s
gust,
m/s
humid.,
%
clouds,
%
prec.,
mm/h
press.,
hPa
HPBL,
m
6 march, sat
sat601:00+27ese56720 0.0 1013654
04:00+27ese56720 0.0 1011705
07:00+27e67770 0.0 1013853
10:00+28e777955 0.1 1014982
13:00+28e677848 0.1 1013916
16:00+28e56731 0.0 1010998
19:00+28e56746 0.0 1012914
22:00+28se55730 0.0 1013761
7 march, sun
sun701:00+28sse44700 0.0 1012663
04:00+28se44710 0.0 1010712
07:00+28ese34721 0.0 1012937
10:00+28ese567260 0.0 1014970
13:00+28se567348 0.0 1012893
16:00+28ese66746 0.0 1009989
19:00+28ese677412 0.0 1011913
22:00+28se67750 0.0 1013741
8 march, mon
mon801:00+28sse67760 0.0 1012735
04:00+27sse677849 0.0 1011904
07:00+27se787771 0.1 10131068
10:00+28se787561 0.1 10151139
13:00+28se777459 0.1 10121065
16:00+28ese677339 0.0 10101023
19:00+28ese677519 0.0 1011936
22:00+28se56750 0.0 1013778
9 march, tue
tue901:00+28se557223 0.0 1013809
04:00+28sse45710 0.0 10121022
07:00+28se457244 0.0 10131015
10:00+28se5671100 0.0 10151039
13:00+28se567184 0.1 1013861
16:00+28ese667732 0.0 1011801
19:00+28ese677517 0.0 1012868
22:00+28ese67775 0.0 1014855
10 march, wed
wed1001:00+28se457317 0.0 1013832
04:00+28se44730 0.0 1011797
07:00+28se557313 0.0 1013925
10:00+28ese6673100 0.0 10151022
13:00+28ese567557 0.0 1012939
16:00+28ese557612 0.1 1010865
19:00+28ese667617 0.1 1011852
22:00+28se67760 0.0 1013726